TimeCST,TemperatureF,Dew PointF,Humidity,Sea Level PressureIn,VisibilityMPH,Wind Direction,Wind SpeedMPH,Gust SpeedMPH,PrecipitationIn,Events,Conditions,WindDirDegrees,DateUTC
12:53 AM,53.1,42.1,66,30.27,10.0,NNE,5.8,-,N/A,,Clear,20,2012-11-19 06:53:00
1:53 AM,52.0,42.1,69,30.27,10.0,North,4.6,-,N/A,,Clear,10,2012-11-19 07:53:00
2:53 AM,51.1,43.0,74,30.27,10.0,North,4.6,-,N/A,,Clear,10,2012-11-19 08:53:00
3:53 AM,52.0,44.1,74,30.25,10.0,NE,3.5,-,N/A,,Clear,50,2012-11-19 09:53:00
4:53 AM,52.0,44.1,74,30.26,10.0,NE,3.5,-,N/A,,Clear,40,2012-11-19 10:53:00
5:53 AM,51.1,45.0,80,30.27,10.0,NNE,3.5,-,N/A,,Clear,30,2012-11-19 11:53:00
6:53 AM,52.0,45.0,77,30.27,10.0,NNE,4.6,-,N/A,,Clear,20,2012-11-19 12:53:00
7:53 AM,57.0,45.0,64,30.27,10.0,NE,5.8,-,N/A,,Clear,50,2012-11-19 13:53:00
8:53 AM,60.1,46.0,60,30.27,10.0,Variable,5.8,-,N/A,,Clear,0,2012-11-19 14:53:00
9:53 AM,63.0,46.9,56,30.27,10.0,Calm,Calm,-,N/A,,Clear,0,2012-11-19 15:53:00
10:53 AM,68.0,48.9,50,30.27,10.0,Variable,3.5,-,N/A,,Clear,0,2012-11-19 16:53:00
11:53 AM,70.0,46.0,42,30.25,10.0,Variable,3.5,-,N/A,,Clear,0,2012-11-19 17:53:00
12:53 PM,73.0,46.9,39,30.21,10.0,Variable,5.8,-,N/A,,Clear,0,2012-11-19 18:53:00
1:53 PM,73.0,46.9,39,30.19,10.0,NNW,8.1,-,N/A,,Clear,330,2012-11-19 19:53:00
2:53 PM,73.0,48.0,41,30.17,10.0,NNE,5.8,-,N/A,,Partly Cloudy,20,2012-11-19 20:53:00
3:53 PM,72.0,45.0,38,30.17,10.0,NNW,8.1,-,N/A,,Clear,340,2012-11-19 21:53:00
4:53 PM,66.0,46.0,48,30.17,10.0,North,5.8,-,N/A,,Clear,10,2012-11-19 22:53:00
5:53 PM,60.1,48.9,67,30.17,10.0,Calm,Calm,-,N/A,,Clear,0,2012-11-19 23:53:00
6:53 PM,57.9,48.9,72,30.19,10.0,Calm,Calm,-,N/A,,Clear,0,2012-11-20 00:53:00
7:53 PM,55.9,48.9,77,30.20,10.0,North,3.5,-,N/A,,Clear,10,2012-11-20 01:53:00
8:53 PM,57.0,48.0,72,30.19,10.0,NNE,3.5,-,N/A,,Clear,20,2012-11-20 02:53:00
9:53 PM,55.9,46.0,69,30.19,10.0,NNE,4.6,-,N/A,,Clear,20,2012-11-20 03:53:00
10:53 PM,55.0,46.0,72,30.19,10.0,NNE,3.5,-,N/A,,Clear,20,2012-11-20 04:53:00
11:53 PM,50.0,45.0,83,30.18,10.0,North,3.5,-,N/A,,Clear,360,2012-11-20 05:53:00